STARLINK-32238, 61661

Orbit data source: Space-Track

STARLINK-32238, 61661 is a payload satellite owned by SpaceX/Seattle (US) in LEO that was launched on Sat, 26 Oct 2024 UTC via an FALCON 9 launch vehicle from the Air Force Eastern Test Range (AFETR). Payload-class satellites include a variety of spacecraft equipped with specific instruments for various scientific and technological missions. These include communications satellites like Starlink; space stations such as the ISS; scientific satellites like the Hubble; Earth observation satellites from companies like Planet Labs, Umbra, and HawkEye 360; GPS; miniature CubeSats for education and research; and military/defense satellites.

Loading next visibility...
Identifier
61661, 2024-193A
Orbit
LEO
Country
Flag of USUS
Related business
Manufacturer
SpaceX/Seattle
Mission
Operational Commercial Communications
Bus & Motor
STARLINK V2M, Unknown motor
Mass
730 kg wet, ~700 kg dry
Launch date (UTC)
2024-10-26 (2 years ago)
Launch vehicle
FALCON 9
Launch site
Air Force Eastern Test Range (AFETR)
Object type
Payload
Rocket body
Debris
Shape & HBR
Box + 2 Pan, 17.7 m
Radar Cross Section
33.884 m², Large (>1 m²)

Expand to show TLE details & history
Last TLE update: 16 hours ago

TLE from 16 hours ago
0 STARLINK-32238
1 61661U 24193A   26171.16657200 -.00000880  00000-0 -17602-4 0  9991
2 61661  53.1617 335.2014 0001237  92.5265 267.5877 15.30193547 92219
Epoch: 2026-06-20T03:59Z
TLE epoch observation values (Epoch: 2026-06-20T03:59:51.820Z)
Latitude
-0.00007°
Longitude
6.85034°
Altitude
476.17 km
Speed
7.629 km/s
True Right ascension
22h 20m 48s
True Declination
0° 00' 00"
Sunlit
Object was in partial shadow at epoch
Visualization orbit readout
Latitude
Unknown
Longitude
Unknown
Altitude
Unknown
Speed
Unknown
Apparent Right ascension
Unknown
Apparent Declination
Unknown
Sunlit
N/A
Visualization observer readout
Local Sidereal Time
07:21:44
Azimuth
Unknown
Elevation
Unknown
Doppler factor
Unknown
Orbital elements
Apogee altitude
476.338 km
Perigee altitude
474.643 km
Semi-major axis
6,853.627 km
Eccentricity
0.00012
Inclination
53.1617°
RAAN
335.2014°
Arg. of periapsis
92.5265°
True anomaly
267.57354°
Mean anomaly
267.5877°
Eccentric anomaly
267.58062°
Mean motion
3.82527 °/min
Orbital period
94.11 mins
BSTAR
-0.000017602
Loading maneuver chart data...
Computing Atmospheric mass density...
Loading historical data...
Loading historical data...
Loading historical data...
Loading historical data...
Loading historical data...
Loading historical data...
Loading historical data...

Documentation

Showing up to 5 results
|